Regional Weather Roundup
Issued by NWS Kansas City/Pleasant Hill, MO

Home | Current Version | Previous Version | Text Only | Print | Product List | Glossary On
Versions: 1 2 3 4 5 6 7 8 9 10 11 12 13 14 15 16 17 18 19 20 21 22 23 24 25 26 27 28
000
ASUS43 KEAX 231510
RWREAX

WEATHER ROUNDUP FOR EASTERN KANSAS AND NORTHWEST MISSOURI
NATIONAL WEATHER SERVICE KANSAS CITY/PLEASANT HILL MO
1000 AM CDT WED MAY 23 2018

KSZ040-057-103>105-MOZ028-029-037-043-231600-
...KANSAS CITY METROPOLITAN AREA...

CITY           SKY/WX    TMP DP  RH WIND       PRES   REMARKS
K.C. INTL      MOSUNNY   79  69  71 SE6       30.11S
K.C. DOWNTOWN  SUNNY     82  67  60 SE5       30.09S
LEES SUMMIT    SUNNY     80  69  69 S6        30.12S
OLATHE - IXD   SUNNY     79  69  71 S6        30.12R
OLATHE - OJC   SUNNY     77  69  76 S3        30.11S
LAWRENCE       SUNNY     80  71  74 S6        30.09S

$$

MOZ001>008-011>017-020>025-030>033-038>040-044>046-053-054-231600-
...NORTHERN AND CENTRAL MISSOURI...

CITY           SKY/WX    TMP DP  RH WIND       PRES   REMARKS
ST. JOSEPH     SUNNY     80  68  66 S7        30.09F
MOSBY          SUNNY     77  64  65 S5        30.11S
WARRENSBURG    SUNNY     79  68  69 CALM      30.12S
WHITEMAN AFB   MOSUNNY   79  69  70 S6        30.09R
CLINTON        SUNNY     79  70  73 S3        30.12S
SEDALIA        SUNNY     80  72  76 SE6       30.14R
WARSAW         NOT AVBL
CHILLICOTHE      N/A     80  66  62 SE8       30.12F
KIRKSVILLE     SUNNY     77  66  68 SE10      30.16S

$$

MOZ041-047>049-056>058-063>065-088>090-097-231600-
...EASTERN AND SOUTHERN MISSOURI...

CITY           SKY/WX    TMP DP  RH WIND       PRES   REMARKS
ST. LOUIS INTL MOSUNNY   77  62  59 E7        30.16F
SPIRIT OF STL  MOSUNNY   78  63  59 E8        30.15S
COLUMBIA       SUNNY     78  65  63 SE10      30.15R
JEFFERSON CITY SUNNY     77  64  64 SE8       30.13S
ROLLA          SUNNY     76  64  66 SE9       30.17R
OSAGE BEACH    SUNNY     79  70  74 SE6       30.15R
SPRINGFIELD    SUNNY     79  68  69 SE7       30.13S
BRANSON        PTSUNNY   77  68  73 SE7       30.16R
JOPLIN         SUNNY     78  69  73 SW3       30.12S
WEST PLAINS    MOSUNNY   79  70  74 E6        30.17S

$$

IAZ060-094-KSZ022-034>040-054-083-096-NEZ052-066-093-231600-
...KANSAS...SOUTHEAST NEBRASKA AND IOWA...

CITY           SKY/WX    TMP DP  RH WIND       PRES   REMARKS
TOPEKA         SUNNY     80  72  76 VRB7      30.09R
MANHATTAN      SUNNY     82  69  64 SW10      30.07S
EMPORIA        SUNNY     77  69  76 S8        30.10R
CHANUTE        SUNNY     77  71  82 S6        30.11S
WICHITA        MOSUNNY   80  70  71 S8        30.08S
OMAHA          MOSUNNY   80  67  64 S14       30.06S
LINCOLN        SUNNY     81  66  60 S10G23    30.06R
FALLS CITY     SUNNY     81  67  62 S8        30.08R
LAMONI         SUNNY     76  65  68 S9        30.13R
DES MOINES     PTSUNNY   77  66  68 SE8       30.12S

$$





USA.gov is the U.S. government's official web portal to all federal, state and local government web resources and services.